レモン彗星

C/2024 J4 ( Lemmon )

English version
Home page
Updated on October 18, 2024

---------------------------------------------------------------------

・ プロフィール

発見日 2024年5月11日
発見光度 20.1等
発見者 K. W. Wierzchos (Mt. Lemmon Survey)

・ 写真集

・ 軌道要素

Epoch 2024 Oct. 17.0 TT = JDT 2460600.5
T 2025 Apr. 26.12853 TT                                 Rudenko
q   5.6949952            (2000.0)            P               Q
z  +0.0002003      Peri.  127.86605     -0.45873105     -0.83886866
 +/-0.0000040      Node    19.29665     -0.78058552     +0.22287310
e   0.9988590      Incl.  117.53498     +0.42456102     -0.49661551
From 188 observations 2024 May 11-Sept. 22, mean residual 0".4.

・ 光度変化

        m1 = 8.0 + 5 logΔ + 10.0 log r

---------------------------------------------------------------------

軌道要素はM.P.E.C. 2024-T138に掲載されたものです。
光度グラフはComet for Windowsで作成したものです。

---------------------------------------------------------------------

Copyright(C) Seiichi Yoshida (comet@aerith.net). All rights reserved.